Tracking 25734 objects as of 28-May-2022
HD Live streaming from Space Station
objects crossing your sky now

TITAN 3C TRANSTAGE DEB

Track TITAN 3C TRANSTAGE DEB now!


NORAD ID: 8832
Int'l Code: 1976-023J
Perigee: 35,752.2 km
Apogee: 36,983.1 km
Inclination: 18.7 °
Period: 1,465.5 minutes
Semi major axis: 42738 km
RCS: 0.9812 m2 (medium)
Launch date: March 15, 1976
Source: United States (US)
Launch site: AIR FORCE EASTERN TEST RANGE (AFETR)

Note: This is SATELLITE DEBRIS
aabbcc
Your satellite tracking list
Your tracking list is empty




NASA's NSSDC Master Catalog

Two Line Element Set (TLE):
1 08832U 76023J   22147.77770336 -.00000112  00000-0  00000-0 0  9990
2 08832  18.6919  61.6188 0144003  52.7536 143.5875  0.98258968103043
Source of the keplerian elements: AFSPC